Total_Precipitation_Accumulation
0.37 0.28 0.32 0.31 0.28 0.30 0.33 0.45 0.49 0.44 0.40 0.39 0.41 0.45 0.46 0.45 0.43 0.38 0.37 0.45 0.52 0.60 0.68 0.89 0.99 1.02 1.03 1.11 1.18 1.21 1.29 1.29 1.50 1.74 1.86 1.92 2.04 1.91 1.80 1.95 2.05 1.75 1.76
0.31 0.27 0.27 0.24 0.23 0.26 0.34 0.44 0.42 0.40 0.38 0.40 0.40 0.45 0.50 0.49 0.43 0.36 0.38 0.49 0.63 0.71 0.76 0.83 0.89 0.89 0.92 0.97 1.09 1.23 1.40 1.41 1.59 1.97 2.17 2.23 2.34 2.18 2.00 1.96 2.08 2.13 1.89
0.41 0.39 0.24 0.24 0.24 0.27 0.37 0.41 0.39 0.37 0.36 0.37 0.38 0.40 0.43 0.41 0.43 0.45 0.47 0.56 0.70 0.85 0.87 0.84 0.83 0.82 0.85 0.92 1.09 1.26 1.41 1.50 1.86 2.28 2.65 2.42 2.27 2.20 2.04 2.02 1.90 1.76 1.57
0.38 0.37 0.25 0.27 0.31 0.32 0.36 0.40 0.46 0.43 0.42 0.40 0.38 0.38 0.40 0.40 0.44 0.49 0.55 0.63 0.77 0.94 0.99 0.95 0.94 0.87 0.87 0.93 1.04 1.20 1.47 1.64 2.08 2.57 2.99 2.64 2.29 2.57 2.44 2.16 1.89 1.70 1.52
0.29 0.30 0.33 0.36 0.37 0.39 0.39 0.40 0.46 0.49 0.49 0.49 0.49 0.44 0.45 0.45 0.46 0.49 0.56 0.67 0.77 0.84 0.95 0.98 0.98 0.94 0.93 0.94 1.01 1.19 1.46 1.70 2.19 2.75 3.17 2.88 2.75 3.01 2.64 2.20 1.98 1.78 1.61
0.34 0.28 0.34 0.43 0.42 0.42 0.45 0.46 0.45 0.46 0.50 0.55 0.58 0.57 0.54 0.53 0.51 0.55 0.61 0.66 0.74 0.77 0.84 0.94 0.99 0.96 0.97 1.00 1.07 1.28 1.55 1.81 2.10 2.57 3.18 2.95 2.80 2.98 2.70 2.42 2.18 1.91 1.74
0.54 0.49 0.42 0.46 0.46 0.48 0.51 0.54 0.56 0.53 0.56 0.61 0.63 0.63 0.64 0.62 0.56 0.60 0.67 0.67 0.74 0.78 0.81 0.78 0.81 0.84 0.96 1.07 1.09 1.25 1.69 2.12 2.14 2.80 3.19 2.99 3.03 2.93 2.79 2.73 2.49 2.14 1.87
0.70 0.65 0.64 0.57 0.49 0.55 0.63 0.62 0.66 0.70 0.67 0.69 0.72 0.70 0.70 0.66 0.63 0.68 0.74 0.79 0.87 0.94 0.94 0.81 0.75 0.80 0.89 0.95 0.97 1.16 1.49 1.79 1.83 2.49 3.01 2.83 2.75 2.70 2.76 2.82 2.51 2.19 1.97
0.90 0.89 0.89 0.71 0.65 0.69 0.80 0.78 0.79 0.80 0.78 0.78 0.85 0.87 0.83 0.79 0.78 0.79 0.83 0.93 1.02 1.00 0.99 0.94 0.91 0.90 0.91 0.93 1.00 1.19 1.44 1.75 1.86 2.19 2.44 2.81 2.71 2.93 2.85 2.67 2.42 2.02 1.82
1.25 1.23 1.15 1.13 1.07 0.95 0.98 1.07 1.02 0.99 0.95 0.88 0.86 0.93 0.92 0.86 0.82 0.91 0.91 1.02 1.10 1.07 1.05 1.08 1.18 1.15 1.08 1.01 1.05 1.17 1.46 1.59 1.47 1.87 2.54 2.60 2.64 3.06 3.09 2.64 2.39 2.10 1.86
1.64 1.58 1.37 1.41 1.41 1.26 1.22 1.17 1.28 1.23 1.18 1.09 1.03 1.04 1.01 1.06 1.13 1.15 1.12 1.33 1.32 1.39 1.49 1.48 1.45 1.40 1.38 1.26 1.23 1.32 1.41 1.30 1.54 2.09 2.51 2.39 2.62 3.08 3.27 2.95 2.52 2.29 2.03
1.79 1.72 1.64 1.52 1.45 1.40 1.30 1.37 1.50 1.45 1.46 1.31 1.43 1.38 1.41 1.70 1.85 1.59 1.75 1.86 1.81 1.80 1.81 1.79 1.69 1.67 1.56 1.26 1.33 1.44 1.20 1.23 1.76 2.22 2.22 2.26 2.57 3.08 3.42 3.20 2.82 2.55 2.35
2.10 1.93 1.98 1.85 1.70 1.85 1.91 1.80 1.79 1.84 1.93 1.79 1.91 1.96 2.06 2.21 2.21 2.16 2.25 2.11 2.08 2.04 2.03 2.11 1.89 1.64 1.52 1.41 1.37 1.37 1.26 1.29 1.57 1.83 2.04 2.25 2.52 3.06 3.45 3.32 3.09 2.97 2.81
2.73 2.54 2.43 2.40 2.27 2.37 2.60 2.40 2.10 1.98 2.07 2.12 2.32 2.24 2.54 2.68 2.64 2.59 2.61 2.50 2.46 2.45 2.56 2.41 2.25 2.03 1.88 1.71 1.54 1.57 1.56 1.53 1.64 1.88 2.09 2.17 2.31 2.88 3.38 3.40 3.30 3.22 3.20
2.91 2.97 2.76 2.72 2.67 2.86 3.05 2.90 2.63 2.56 2.35 2.31 2.61 2.65 2.78 2.93 2.91 2.97 2.88 2.82 2.63 2.59 2.61 2.54 2.39 2.39 2.28 2.03 1.76 1.75 1.86 1.81 1.88 2.11 2.12 2.20 2.27 2.66 3.21 3.50 3.50 3.48 3.56
2.78 2.95 3.12 3.13 3.06 2.92 3.03 3.03 2.81 2.55 2.65 2.56 2.60 2.73 2.72 2.91 3.17 3.21 3.13 3.07 3.00 2.92 2.99 2.82 2.65 2.79 2.64 2.46 2.21 2.12 2.07 2.13 2.12 2.19 2.37 2.43 2.33 2.39 2.81 3.26 3.51 3.69 3.85
2.68 2.78 2.94 3.10 3.27 3.11 3.10 3.12 2.94 2.73 2.71 2.81 2.92 3.12 2.96 2.92 3.20 3.30 3.43 3.34 3.32 3.28 3.30 3.23 3.17 3.24 2.92 2.71 2.50 2.38 2.34 2.42 2.40 2.32 2.46 2.63 2.48 2.54 2.63 2.78 3.00 3.25 3.59
2.30 2.56 2.81 3.03 3.24 3.41 3.46 3.56 3.32 3.33 3.33 3.26 3.13 3.16 3.10 3.10 3.29 3.59 3.68 3.67 3.71 3.62 3.69 3.76 3.66 3.51 3.36 3.10 2.86 2.51 2.38 2.54 2.58 2.57 2.59 2.65 2.81 2.68 2.69 2.61 2.66 2.79 3.10
2.00 2.47 2.83 3.20 3.58 3.77 3.92 4.13 4.05 4.09 3.93 3.77 3.67 3.55 3.62 3.76 3.78 3.95 4.05 4.11 4.15 4.15 4.11 3.91 4.08 3.89 3.82 3.61 3.12 2.80 2.49 2.40 2.46 2.43 2.55 2.51 2.64 2.69 2.77 2.71 2.66 2.67 2.89
2.15 2.54 2.92 3.24 3.82 4.33 4.37 4.51 4.55 4.74 4.71 4.58 4.59 4.40 4.19 4.28 4.38 4.55 4.47 4.51 4.56 4.63 4.47 4.42 4.48 4.27 3.99 3.94 3.43 3.11 2.81 2.51 2.49 2.50 2.52 2.63 2.56 2.38 2.53 2.67 2.82 2.64 2.82
2.79 2.94 3.16 3.41 3.78 4.06 4.42 4.73 4.94 5.12 5.33 5.39 5.30 5.24 5.21 5.19 5.31 5.38 5.14 5.12 5.04 4.92 4.70 4.62 4.50 4.28 4.02 4.02 3.90 3.43 2.79 2.39 2.29 2.19 2.25 2.49 2.52 2.40 2.46 2.56 2.61 2.54 2.44
3.19 3.25 3.45 3.77 4.09 4.28 4.66 5.17 5.64 5.82 5.93 5.92 5.88 5.98 6.00 6.00 6.16 6.20 6.17 5.94 5.76 5.49 4.99 4.63 4.50 4.26 3.87 3.99 4.02 3.96 3.23 2.71 2.21 1.78 1.89 1.97 2.07 2.29 2.27 2.23 2.35 2.47 2.36
3.17 3.29 3.45 3.92 4.37 4.82 5.28 5.85 6.32 6.59 6.59 6.44 6.11 6.17 6.28 6.15 6.25 6.43 6.42 6.20 5.88 5.33 4.76 4.60 4.56 4.39 4.09 4.01 3.92 4.10 3.54 2.98 2.52 2.02 1.76 1.67 1.80 1.94 1.96 1.98 2.02 2.13 2.14
3.04 3.28 3.50 3.92 4.61 5.11 5.43 6.05 6.65 6.90 7.10 7.16 6.91 6.58 6.36 6.11 6.00 5.94 5.78 5.38 5.02 4.67 4.37 4.23 4.29 4.17 4.12 3.92 3.83 3.54 3.30 3.01 2.74 2.33 1.89 1.67 1.72 1.77 1.80 1.77 1.79 1.99 2.09
2.95 3.06 3.30 3.86 4.51 5.24 5.82 6.29 6.83 7.25 7.48 7.45 7.01 6.55 6.01 5.64 5.19 4.78 4.46 4.24 4.17 4.00 3.79 3.67 3.68 3.60 3.43 3.32 3.30 3.26 3.20 2.95 2.61 2.40 2.11 1.91 1.88 1.73 1.73 1.84 1.89 1.97 2.08
2.61 2.86 3.16 3.59 4.33 5.06 5.64 6.16 6.62 6.96 7.02 6.73 6.22 5.69 5.35 4.95 4.41 3.89 3.61 3.41 3.28 3.12 2.92 2.82 2.81 2.84 2.93 2.97 3.04 3.03 2.97 2.91 2.71 2.64 2.46 2.22 2.11 1.99 1.93 1.92 1.95 2.03 2.20